Location: Triton
(47.6048°N, 122.9899°W)
Time: 14:21:37
(UTC+00:00)

BlueWalker 3 - Visible Passes

Search period start: 15 February 2026 00:00
Search period end: 25 February 2026 00:00
Orbit: 450 x 461 km, 53.2° (Epoch: 14 February)

Date Brightness Start Highest point End Pass type
(mag) Time Alt. Az. Time Alt. Az. Time Alt. Az.
22 Feb 4.4 14:14:25 10° S 14:17:09 20° SE 14:19:53 10° E visible
23 Feb 4.6 13:39:08 10° S 13:41:25 16° SE 13:43:43 10° E visible
24 Feb 4.6 13:04:06 10° SSE 13:05:42 13° SE 13:07:17 10° ESE visible
